Portada
METAR-TAF:

METAR-TAF

Aeroports :

Tena, Equador

latitud: 01-03-35S, longitud: 77-35-00W, altitud: 376 m

Observació

L'informe es va fer fa 33 minuts, a les 20:00 UTC
Vent calma
Temperatura 30°C
Humitat 59%
Pressió 1013 hPa
Visibilitat 10 km o més
Núvols disperses a una alçada de 2300 ft

METAR: SEJD 192000Z 00000KT 9999 SCT023 30/21 Q1013 A2992

Hora: 15:33 (20:33 UTC)


TAF: manca

Observacions i pronòstics meteorològics de més de 4000 aeroports (METAR i TAF).

Les estacions disponibles són els punts grocs i vermells al mapa.

Posi el ratolí al punt desitjat per veure el nom de l'estació.

Feu clic per veure les observacions i els pronòstics meteorològics.

Per canviar el mapa: feu clic els botons verds amb una creu de color negre per apropar; al botó verd amb un guió per allunyar la imatge; o en les fletxes verdes per a mapes adjacents.


METAR-TAF: